ProjectID,Date,Electric Generation,Electric Utility Import,Facility Electric Load
,YYYY-MM-DD,kW,kW,kW
250,2015-04-01,0.0,,0.0
250,2015-04-02,0.0,,0.0
250,2015-04-03,0.0,,0.0
250,2015-04-04,0.0,,0.0
250,2015-04-05,0.0,,0.0
250,2015-04-06,0.0,,0.0
250,2015-04-07,0.0,,0.0
250,2015-04-08,0.0,,0.0
250,2015-04-09,0.0,,0.0
250,2015-04-10,0.0,,0.0
250,2015-04-11,0.0,,0.0
250,2015-04-12,0.0,,0.0
250,2015-04-13,0.0,,0.0
250,2015-04-14,0.0,,0.0
250,2015-04-15,0.0,,0.0
250,2015-04-16,0.0,,0.0
250,2015-04-17,0.0,,0.0
250,2015-04-18,0.0,,0.0
250,2015-04-19,0.0,,0.0
250,2015-04-20,107.50012500000001,,107.50012500000001
250,2015-04-21,233.88008333333335,,233.88008333333335
250,2015-04-22,187.42162499999998,,187.42162499999998
250,2015-04-23,249.12008333333333,,249.12008333333333
250,2015-04-24,142.43841666666665,,142.43841666666665
250,2015-04-25,431.2416666666666,,431.2416666666666
250,2015-04-26,262.63508333333334,,262.63508333333334
250,2015-04-27,110.21329166666668,,110.21329166666668
250,2015-04-28,442.9083333333333,,442.9083333333333
250,2015-04-29,461.31012499999997,,461.31012499999997
250,2015-04-30,343.30004166666663,,343.30004166666663
250,2015-05-01,211.8167083333333,,211.8167083333333
250,2015-05-02,423.9734583333333,,423.9734583333333
250,2015-05-03,376.5999583333333,,376.5999583333333
250,2015-05-04,395.5484166666667,,395.5484166666667
250,2015-05-05,327.74174999999997,,327.74174999999997
250,2015-05-06,255.76833333333332,,255.76833333333332
250,2015-05-07,451.1285833333333,,451.1285833333333
250,2015-05-08,439.74333333333334,,439.74333333333334
250,2015-05-09,287.2384583333333,,287.2384583333333
250,2015-05-10,435.62170833333334,,435.62170833333334
250,2015-05-11,311.42016666666666,,311.42016666666666
250,2015-05-12,274.66866666666664,,274.66866666666664
250,2015-05-13,223.24145833333333,,223.24145833333333
250,2015-05-14,466.0617916666667,,466.0617916666667
250,2015-05-15,326.17845833333337,,326.17845833333337
250,2015-05-16,305.60679166666665,,305.60679166666665
250,2015-05-17,173.2465,,173.2465
250,2015-05-18,139.78175000000002,,139.78175000000002
250,2015-05-19,276.74195833333334,,276.74195833333334
250,2015-05-20,347.565125,,347.565125
250,2015-05-21,272.7317083333333,,272.7317083333333
250,2015-05-22,435.58662499999997,,435.58662499999997
250,2015-05-23,472.8883333333333,,472.8883333333333
250,2015-05-24,448.6720416666667,,448.6720416666667
250,2015-05-25,343.11133333333333,,343.11133333333333
250,2015-05-26,303.520125,,303.520125
250,2015-05-27,284.0120416666667,,284.0120416666667
250,2015-05-28,334.1849583333333,,334.1849583333333
250,2015-05-29,403.183375,,403.183375
250,2015-05-30,318.713375,,318.713375
250,2015-05-31,113.10837500000001,,113.10837500000001
250,2015-06-01,73.54016666666666,,73.54016666666666
250,2015-06-02,134.1465,,134.1465
250,2015-06-03,407.84179166666667,,407.84179166666667
250,2015-06-04,311.9082916666667,,311.9082916666667
250,2015-06-05,360.82349999999997,,360.82349999999997
250,2015-06-06,320.1818333333333,,320.1818333333333
250,2015-06-07,450.2784583333334,,450.2784583333334
250,2015-06-08,202.94020833333332,,202.94020833333332
250,2015-06-09,232.26495833333334,,232.26495833333334
250,2015-06-10,437.105,,437.105
250,2015-06-11,329.6417083333333,,329.6417083333333
250,2015-06-12,373.47695833333336,,373.47695833333336
250,2015-06-13,428.63325000000003,,428.63325000000003
250,2015-06-14,393.19666666666666,,393.19666666666666
250,2015-06-15,111.94687499999999,,111.94687499999999
250,2015-06-16,177.70325,,177.70325
250,2015-06-17,387.50670833333334,,387.50670833333334
250,2015-06-18,161.87199999999999,,161.87199999999999
250,2015-06-19,316.3700416666667,,316.3700416666667
250,2015-06-20,161.27337500000002,,161.27337500000002
250,2015-06-21,229.76679166666668,,229.76679166666668
250,2015-06-22,370.4950833333333,,370.4950833333333
250,2015-06-23,226.48825,,226.48825
250,2015-06-24,356.4702916666667,,356.4702916666667
250,2015-06-25,342.10870833333337,,342.10870833333337
250,2015-06-26,355.34970833333335,,355.34970833333335
250,2015-06-27,151.37195833333334,,151.37195833333334
250,2015-06-28,101.85337500000001,,101.85337500000001
250,2015-06-29,265.85325,,265.85325
250,2015-06-30,154.56199999999998,,154.56199999999998
250,2015-07-01,259.28825,,259.28825
250,2015-07-02,335.4696666666667,,335.4696666666667
250,2015-07-03,413.2987083333333,,413.2987083333333
250,2015-07-04,142.19341666666665,,142.19341666666665
250,2015-07-05,379.8164166666666,,379.8164166666666
250,2015-07-06,283.6685,,283.6685
250,2015-07-07,253.14333333333332,,253.14333333333332
250,2015-07-08,255.54025000000001,,255.54025000000001
250,2015-07-09,198.023875,,198.023875
250,2015-07-10,313.72341666666665,,313.72341666666665
250,2015-07-11,383.3062916666667,,383.3062916666667
250,2015-07-12,355.25008333333335,,355.25008333333335
250,2015-07-13,327.6419583333333,,327.6419583333333
250,2015-07-14,229.10033333333334,,229.10033333333334
250,2015-07-15,304.96995833333335,,304.96995833333335
250,2015-07-16,398.01825,,398.01825
250,2015-07-17,335.5529583333333,,335.5529583333333
250,2015-07-18,185.20054166666668,,185.20054166666668
250,2015-07-19,289.62304166666667,,289.62304166666667
250,2015-07-20,301.99516666666665,,301.99516666666665
250,2015-07-21,275.77483333333333,,275.77483333333333
250,2015-07-22,327.2819583333333,,327.2819583333333
250,2015-07-23,328.76462499999997,,328.76462499999997
250,2015-07-24,312.753875,,312.753875
250,2015-07-25,0.049666666666666665,,0.049666666666666665
250,2015-07-26,190.30204166666667,,190.30204166666667
250,2015-07-27,277.5895,,277.5895
250,2015-07-28,320.30512500000003,,320.30512500000003
250,2015-07-29,314.9836666666667,,314.9836666666667
250,2015-07-30,141.68133333333333,,141.68133333333333
250,2015-07-31,335.13366666666667,,335.13366666666667
250,2015-08-01,295.17445833333335,,295.17445833333335
250,2015-08-02,343.0704166666667,,343.0704166666667
250,2015-08-03,344.3902083333333,,344.3902083333333
250,2015-08-04,0.045083333333333336,,0.045083333333333336
250,2015-08-05,289.43191666666667,,289.43191666666667
250,2015-08-06,299.50804166666666,,299.50804166666666
250,2015-08-07,331.22541666666666,,331.22541666666666
250,2015-08-08,289.88158333333337,,289.88158333333337
250,2015-08-09,324.9782916666667,,324.9782916666667
250,2015-08-10,173.911625,,173.911625
250,2015-08-11,117.79504166666668,,117.79504166666668
250,2015-08-12,332.1787083333333,,332.1787083333333
250,2015-08-13,343.24645833333335,,343.24645833333335
250,2015-08-14,376.3282916666667,,376.3282916666667
250,2015-08-15,287.42699999999996,,287.42699999999996
250,2015-08-16,365.1579166666667,,365.1579166666667
250,2015-08-17,342.9156666666667,,342.9156666666667
250,2015-08-18,334.0625416666667,,334.0625416666667
250,2015-08-19,311.19054166666666,,311.19054166666666
250,2015-08-20,303.2898333333333,,303.2898333333333
250,2015-08-21,0.048499999999999995,,0.048499999999999995
250,2015-08-22,356.0684166666667,,356.0684166666667
250,2015-08-23,251.51516666666666,,251.51516666666666
250,2015-08-24,337.4134583333333,,337.4134583333333
250,2015-08-25,271.5515,,271.5515
250,2015-08-26,319.1165833333333,,319.1165833333333
250,2015-08-27,303.88708333333335,,303.88708333333335
250,2015-08-28,335.0435,,335.0435
250,2015-08-29,361.497875,,361.497875
250,2015-08-30,236.86208333333332,,236.86208333333332
250,2015-08-31,306.99987500000003,,306.99987500000003
250,2015-09-01,351.63525,,351.63525
250,2015-09-02,361.18983333333335,,361.18983333333335
250,2015-09-03,337.2369166666667,,337.2369166666667
250,2015-09-04,220.14520833333333,,220.14520833333333
250,2015-09-05,383.37491666666665,,383.37491666666665
250,2015-09-06,376.11833333333334,,376.11833333333334
250,2015-09-07,358.3486666666667,,358.3486666666667
250,2015-09-08,334.509875,,334.509875
250,2015-09-09,312.3,,312.3
250,2015-09-10,82.46375,,82.46375
250,2015-09-11,258.2379583333333,,258.2379583333333
250,2015-09-12,211.42841666666666,,211.42841666666666
250,2015-09-13,188.73683333333335,,188.73683333333335
250,2015-09-14,231.0499166666667,,231.0499166666667
250,2015-09-15,375.15479166666665,,375.15479166666665
250,2015-09-16,364.70345833333334,,364.70345833333334
250,2015-09-17,362.6694583333333,,362.6694583333333
250,2015-09-18,362.02120833333333,,362.02120833333333
250,2015-09-19,330.84554166666663,,330.84554166666663
250,2015-09-20,375.541,,375.541
250,2015-09-21,293.7264166666667,,293.7264166666667
250,2015-09-22,179.63995833333334,,179.63995833333334
250,2015-09-23,366.6970416666666,,366.6970416666666
250,2015-09-24,331.2812916666667,,331.2812916666667
250,2015-09-25,314.133875,,314.133875
250,2015-09-26,273.5896666666667,,273.5896666666667
250,2015-09-27,355.7350833333333,,355.7350833333333
250,2015-09-28,228.05041666666668,,228.05041666666668
250,2015-09-29,146.42995833333333,,146.42995833333333
250,2015-09-30,70.82779166666667,,70.82779166666667
250,2015-10-01,0.18291666666666664,,0.18291666666666664
250,2015-10-02,0.0,,0.0
250,2015-10-03,0.0,,0.0
250,2015-10-04,0.0,,0.0
250,2015-10-05,0.0,,0.0
250,2015-10-06,0.0,,0.0
250,2015-10-07,0.0,,0.0
250,2015-10-08,0.0,,0.0
250,2015-10-09,0.0,,0.0
250,2015-10-10,0.0,,0.0
250,2015-10-11,0.0,,0.0
250,2015-10-12,0.0,,0.0
250,2015-10-13,0.0,,0.0
250,2015-10-14,0.0,,0.0
250,2015-10-15,0.0,,0.0
250,2015-10-16,0.0,,0.0
250,2015-10-17,0.0,,0.0
250,2015-10-18,0.0,,0.0
250,2015-10-19,0.0,,0.0
250,2015-10-20,0.0,,0.0
250,2015-10-21,0.0,,0.0
250,2015-10-22,0.0,,0.0
250,2015-10-23,0.0,,0.0
250,2015-10-24,0.0,,0.0
250,2015-10-25,0.0,,0.0
250,2015-10-26,0.0,,0.0
250,2015-10-27,0.0,,0.0
250,2015-10-28,0.0,,0.0
250,2015-10-29,0.0,,0.0
250,2015-10-30,0.0,,0.0
250,2015-10-31,0.0,,0.0
250,2015-11-01,0.0,,0.0
250,2015-11-02,0.0,,0.0
250,2015-11-03,0.0,,0.0
250,2015-11-04,0.0,,0.0
250,2015-11-05,0.0,,0.0
250,2015-11-06,0.0,,0.0
250,2015-11-07,0.0,,0.0
250,2015-11-08,0.0,,0.0
250,2015-11-09,12.594458333333334,,12.594458333333334
250,2015-11-10,47.105875,,47.105875
250,2015-11-11,36.873083333333334,,36.873083333333334
250,2015-11-12,18.92875,,18.92875
250,2015-11-13,118.995,,118.995
250,2015-11-14,172.98108333333334,,172.98108333333334
250,2015-11-15,267.640875,,267.640875
250,2015-11-16,258.61,,258.61
250,2015-11-17,280.2747083333333,,280.2747083333333
250,2015-11-18,142.84670833333334,,142.84670833333334
250,2015-11-19,23.943791666666666,,23.943791666666666
250,2015-11-20,269.66862499999996,,269.66862499999996
250,2015-11-21,262.129625,,262.129625
250,2015-11-22,100.263125,,100.263125
250,2015-11-23,267.163125,,267.163125
250,2015-11-24,238.69787499999998,,238.69787499999998
250,2015-11-25,258.1677916666667,,258.1677916666667
250,2015-11-26,138.81379166666667,,138.81379166666667
250,2015-11-27,201.67125,,201.67125
250,2015-11-28,21.940083333333334,,21.940083333333334
250,2015-11-29,250.27675,,250.27675
250,2015-11-30,142.57399999999998,,142.57399999999998
250,2015-12-01,18.722375,,18.722375
250,2015-12-02,17.417416666666664,,17.417416666666664
250,2015-12-03,79.57629166666666,,79.57629166666666
250,2015-12-04,165.24029166666665,,165.24029166666665
250,2015-12-05,221.38966666666667,,221.38966666666667
250,2015-12-06,214.63545833333333,,214.63545833333333
250,2015-12-07,213.45541666666668,,213.45541666666668
250,2015-12-08,131.70612500000001,,131.70612500000001
250,2015-12-09,42.17308333333333,,42.17308333333333
250,2015-12-10,159.45525,,159.45525
250,2015-12-11,126.29379166666666,,126.29379166666666
250,2015-12-12,123.82658333333335,,123.82658333333335
250,2015-12-13,49.571916666666674,,49.571916666666674
250,2015-12-14,35.372458333333334,,35.372458333333334
250,2015-12-15,93.86141666666667,,93.86141666666667
250,2015-12-16,197.5426666666667,,197.5426666666667
250,2015-12-17,5.500624999999999,,5.500624999999999
250,2015-12-18,61.802166666666665,,61.802166666666665
250,2015-12-19,134.19516666666667,,134.19516666666667
250,2015-12-20,166.019375,,166.019375
250,2015-12-21,68.46379166666667,,68.46379166666667
250,2015-12-22,15.713916666666668,,15.713916666666668
250,2015-12-23,36.75033333333334,,36.75033333333334
250,2015-12-24,39.46404166666667,,39.46404166666667
250,2015-12-25,129.39825,,129.39825
250,2015-12-26,110.24020833333333,,110.24020833333333
250,2015-12-27,20.57016666666667,,20.57016666666667
250,2015-12-28,140.37208333333334,,140.37208333333334
250,2015-12-29,15.711458333333333,,15.711458333333333
250,2015-12-30,13.208374999999998,,13.208374999999998
250,2015-12-31,70.05466666666666,,70.05466666666666
250,2016-01-01,44.365833333333335,,44.365833333333335
250,2016-01-02,177.81616666666665,,177.81616666666665
250,2016-01-03,139.939625,,139.939625
250,2016-01-04,166.86100000000002,,166.86100000000002
250,2016-01-05,234.78945833333333,,234.78945833333333
250,2016-01-06,230.92616666666666,,230.92616666666666
250,2016-01-07,164.96366666666668,,164.96366666666668
250,2016-01-08,174.41258333333334,,174.41258333333334
250,2016-01-09,46.891083333333334,,46.891083333333334
250,2016-01-10,34.001916666666666,,34.001916666666666
250,2016-01-11,222.29508333333334,,222.29508333333334
250,2016-01-12,108.02379166666667,,108.02379166666667
250,2016-01-13,150.10441666666665,,150.10441666666665
250,2016-01-14,170.579125,,170.579125
250,2016-01-15,139.01891666666668,,139.01891666666668
250,2016-01-16,80.46124999999999,,80.46124999999999
250,2016-01-17,40.240833333333335,,40.240833333333335
250,2016-01-18,147.53583333333333,,147.53583333333333
250,2016-01-19,235.06904166666666,,235.06904166666666
250,2016-01-20,245.66866666666667,,245.66866666666667
250,2016-01-21,273.76466666666664,,273.76466666666664
250,2016-01-22,165.956625,,165.956625
250,2016-01-23,26.477875,,26.477875
250,2016-01-24,262.05920833333334,,262.05920833333334
250,2016-01-25,232.43395833333332,,232.43395833333332
250,2016-01-26,85.28879166666667,,85.28879166666667
250,2016-01-27,165.92908333333332,,165.92908333333332
250,2016-01-28,275.5305,,275.5305
250,2016-01-29,62.956291666666665,,62.956291666666665
250,2016-01-30,214.90504166666665,,214.90504166666665
250,2016-01-31,210.35166666666666,,210.35166666666666
250,2016-02-01,118.57383333333333,,118.57383333333333
250,2016-02-02,330.839875,,330.839875
250,2016-02-03,11.058625,,11.058625
250,2016-02-04,113.39299999999999,,113.39299999999999
250,2016-02-05,90.35754166666668,,90.35754166666668
250,2016-02-06,289.94979166666667,,289.94979166666667
250,2016-02-07,333.01145833333334,,333.01145833333334
250,2016-02-08,61.08058333333333,,61.08058333333333
250,2016-02-09,14.229875,,14.229875
250,2016-02-10,35.009,,35.009
250,2016-02-11,110.17429166666666,,110.17429166666666
250,2016-02-12,174.29820833333335,,174.29820833333335
250,2016-02-13,221.5247916666667,,221.5247916666667
250,2016-02-14,300.131875,,300.131875
250,2016-02-15,56.454874999999994,,56.454874999999994
250,2016-02-16,28.655916666666666,,28.655916666666666
250,2016-02-17,55.916291666666666,,55.916291666666666
250,2016-02-18,291.79608333333334,,291.79608333333334
250,2016-02-19,209.29487500000002,,209.29487500000002
250,2016-02-20,0.06525,,0.06525
250,2016-02-21,237.92754166666668,,237.92754166666668
250,2016-02-22,383.30850000000004,,383.30850000000004
250,2016-02-23,71.69333333333334,,71.69333333333334
250,2016-02-24,24.895124999999997,,24.895124999999997
250,2016-02-25,87.700125,,87.700125
250,2016-02-26,362.6963333333333,,362.6963333333333
250,2016-02-27,392.9547083333334,,392.9547083333334
250,2016-02-28,294.2513333333333,,294.2513333333333
250,2016-02-29,146.38466666666667,,146.38466666666667
250,2016-03-01,323.44441666666665,,323.44441666666665
250,2016-03-02,249.85008333333334,,249.85008333333334
250,2016-03-03,396.60833333333335,,396.60833333333335
250,2016-03-04,235.03775,,235.03775
250,2016-03-05,347.203875,,347.203875
250,2016-03-06,404.86224999999996,,404.86224999999996
250,2016-03-07,233.76504166666666,,233.76504166666666
250,2016-03-08,289.682875,,289.682875
250,2016-03-09,377.43533333333335,,377.43533333333335
250,2016-03-10,90.63066666666667,,90.63066666666667
250,2016-03-11,350.6579583333333,,350.6579583333333
250,2016-03-12,388.29875,,388.29875
250,2016-03-13,282.9314583333333,,282.9314583333333
250,2016-03-14,62.90158333333333,,62.90158333333333
250,2016-03-15,150.67854166666666,,150.67854166666666
250,2016-03-16,331.087125,,331.087125
250,2016-03-17,231.72283333333334,,231.72283333333334
250,2016-03-18,207.255125,,207.255125
250,2016-03-19,429.9318333333333,,429.9318333333333
250,2016-03-20,212.40650000000002,,212.40650000000002
250,2016-03-21,276.79833333333335,,276.79833333333335
250,2016-03-22,365.1322083333334,,365.1322083333334
250,2016-03-23,174.03216666666665,,174.03216666666665
250,2016-03-24,372.3655416666666,,372.3655416666666
250,2016-03-25,141.85329166666665,,141.85329166666665
250,2016-03-26,341.2305833333333,,341.2305833333333
250,2016-03-27,245.21516666666665,,245.21516666666665
250,2016-03-28,77.68945833333333,,77.68945833333333
250,2016-03-29,383.9589583333333,,383.9589583333333
250,2016-03-30,387.55524999999994,,387.55524999999994
250,2016-03-31,224.95316666666668,,224.95316666666668
250,2016-04-01,133.183,,133.183
250,2016-04-02,134.59783333333334,,134.59783333333334
250,2016-04-03,82.63279166666666,,82.63279166666666
250,2016-04-04,1.6299166666666667,,1.6299166666666667
250,2016-04-05,39.60695833333333,,39.60695833333333
250,2016-04-06,171.91145833333334,,171.91145833333334
250,2016-04-07,135.65075,,135.65075
250,2016-04-08,170.31366666666665,,170.31366666666665
250,2016-04-09,304.387125,,304.387125
250,2016-04-10,417.7204166666667,,417.7204166666667
250,2016-04-11,81.99029166666666,,81.99029166666666
250,2016-04-12,226.63154166666666,,226.63154166666666
250,2016-04-13,0.021500000000000002,,0.021500000000000002
250,2016-04-14,0.0,,0.0
250,2016-04-15,0.0,,0.0
250,2016-04-16,0.0,,0.0
250,2016-04-17,0.0,,0.0
250,2016-04-18,0.0,,0.0
250,2016-04-19,0.0,,0.0
250,2016-04-20,0.0,,0.0
250,2016-04-21,0.0,,0.0
250,2016-04-22,0.0,,0.0
250,2016-04-23,0.0,,0.0
250,2016-04-24,0.0,,0.0
250,2016-04-25,0.0,,0.0
250,2016-04-26,0.0,,0.0
250,2016-04-27,0.0,,0.0
250,2016-04-28,0.0,,0.0
250,2016-04-29,0.0,,0.0
250,2016-04-30,0.0,,0.0
250,2016-05-01,0.0,,0.0
250,2016-05-02,0.0,,0.0
250,2016-05-03,37.35554166666667,,37.35554166666667
250,2016-05-04,64.15270833333334,,64.15270833333334
250,2016-05-05,198.17316666666667,,198.17316666666667
250,2016-05-06,125.00591666666666,,125.00591666666666
250,2016-05-07,126.28516666666667,,126.28516666666667
250,2016-05-08,239.51987499999998,,239.51987499999998
250,2016-05-09,411.75458333333336,,411.75458333333336
250,2016-05-10,335.73354166666667,,335.73354166666667
250,2016-05-11,393.15366666666665,,393.15366666666665
250,2016-05-12,376.4447083333334,,376.4447083333334
250,2016-05-13,83.06516666666667,,83.06516666666667
250,2016-05-14,277.43,,277.43
250,2016-05-15,0.0,,0.0
250,2016-05-16,0.0,,0.0
250,2016-05-17,0.0,,0.0
250,2016-05-18,0.0,,0.0
250,2016-05-19,0.0,,0.0
250,2016-05-20,55.50333333333333,,55.50333333333333
250,2016-05-21,213.07458333333332,,213.07458333333332
250,2016-05-22,243.52316666666664,,243.52316666666664
250,2016-05-23,340.94533333333334,,340.94533333333334
250,2016-05-24,218.61925,,218.61925
250,2016-05-25,392.3632916666666,,392.3632916666666
250,2016-05-26,341.0380833333333,,341.0380833333333
250,2016-05-27,266.985,,266.985
250,2016-05-28,351.88733333333334,,351.88733333333334
250,2016-05-29,330.77183333333335,,330.77183333333335
250,2016-05-30,258.77241666666663,,258.77241666666663
250,2016-05-31,380.18554166666667,,380.18554166666667
250,2016-06-01,354.05637499999995,,354.05637499999995
250,2016-06-02,345.7217083333333,,345.7217083333333
250,2016-06-03,114.24666666666667,,114.24666666666667
250,2016-06-04,314.79883333333333,,314.79883333333333
250,2016-06-05,92.55004166666667,,92.55004166666667
250,2016-06-06,370.56054166666667,,370.56054166666667
250,2016-06-07,319.7864583333333,,319.7864583333333
250,2016-06-08,0.0,,0.0
250,2016-06-09,390.9614583333334,,390.9614583333334
250,2016-06-10,399.1802916666666,,399.1802916666666
250,2016-06-11,0.0,,0.0
250,2016-06-12,265.019875,,265.019875
250,2016-06-13,321.4695,,321.4695
250,2016-06-14,0.0,,0.0
250,2016-06-15,0.0,,0.0
250,2016-06-16,0.0,,0.0
250,2016-06-17,0.0,,0.0
250,2016-06-18,0.0,,0.0
250,2016-06-19,0.0,,0.0
250,2016-06-20,0.0,,0.0
250,2016-06-21,0.0,,0.0
250,2016-06-22,0.0,,0.0
250,2016-06-23,0.0,,0.0
250,2016-06-24,0.0,,0.0
250,2016-06-25,0.0,,0.0
250,2016-06-26,0.0,,0.0
250,2016-06-27,0.0,,0.0
250,2016-06-28,0.0,,0.0
250,2016-06-29,227.99154166666665,,227.99154166666665
250,2016-06-30,272.3414583333333,,272.3414583333333
250,2016-07-01,233.52670833333332,,233.52670833333332
250,2016-07-02,354.4222916666667,,354.4222916666667
250,2016-07-03,357.6885833333333,,357.6885833333333
250,2016-07-04,388.32070833333336,,388.32070833333336
250,2016-07-05,254.719375,,254.719375
250,2016-07-06,349.3195,,349.3195
250,2016-07-07,236.0345,,236.0345
250,2016-07-08,273.87791666666664,,273.87791666666664
250,2016-07-09,99.90166666666666,,99.90166666666666
250,2016-07-10,244.18683333333334,,244.18683333333334
250,2016-07-11,310.6562083333333,,310.6562083333333
250,2016-07-12,391.78908333333334,,391.78908333333334
250,2016-07-13,234.98175,,234.98175
250,2016-07-14,122.75479166666666,,122.75479166666666
250,2016-07-15,255.22166666666666,,255.22166666666666
250,2016-07-16,258.784875,,258.784875
250,2016-07-17,272.64129166666663,,272.64129166666663
250,2016-07-18,241.3955,,241.3955
250,2016-07-19,314.81379166666665,,314.81379166666665
250,2016-07-20,353.8629583333333,,353.8629583333333
250,2016-07-21,307.0745416666667,,307.0745416666667
250,2016-07-22,261.41991666666667,,261.41991666666667
250,2016-07-23,248.53258333333335,,248.53258333333335
250,2016-07-24,263.96162499999997,,263.96162499999997
250,2016-07-25,199.65629166666668,,199.65629166666668
250,2016-07-26,255.84383333333335,,255.84383333333335
250,2016-07-27,257.952625,,257.952625
250,2016-07-28,222.09441666666666,,222.09441666666666
250,2016-07-29,202.2904583333333,,202.2904583333333
250,2016-07-30,176.23108333333334,,176.23108333333334
250,2016-07-31,87.52354166666667,,87.52354166666667
250,2016-08-01,104.703875,,104.703875
250,2016-08-02,190.87891666666667,,190.87891666666667
250,2016-08-03,317.44170833333334,,317.44170833333334
250,2016-08-04,280.122375,,280.122375
250,2016-08-05,270.76495833333337,,270.76495833333337
250,2016-08-06,199.65695833333334,,199.65695833333334
250,2016-08-07,237.26175,,237.26175
250,2016-08-08,256.25783333333334,,256.25783333333334
250,2016-08-09,249.93112499999998,,249.93112499999998
250,2016-08-10,86.12170833333333,,86.12170833333333
250,2016-08-11,206.01854166666666,,206.01854166666666
250,2016-08-12,269.8890416666667,,269.8890416666667
250,2016-08-13,301.495125,,301.495125
250,2016-08-14,251.86462500000002,,251.86462500000002
250,2016-08-15,288.58370833333333,,288.58370833333333
250,2016-08-16,178.11233333333334,,178.11233333333334
250,2016-08-17,282.16383333333334,,282.16383333333334
250,2016-08-18,328.35133333333334,,328.35133333333334
250,2016-08-19,294.6770833333333,,294.6770833333333
250,2016-08-20,330.48995833333333,,330.48995833333333
250,2016-08-21,216.53716666666665,,216.53716666666665
250,2016-08-22,249.039125,,249.039125
250,2016-08-23,342.80199999999996,,342.80199999999996
250,2016-08-24,325.926375,,325.926375
250,2016-08-25,239.2988333333333,,239.2988333333333
250,2016-08-26,279.74674999999996,,279.74674999999996
250,2016-08-27,314.224375,,314.224375
250,2016-08-28,323.29295833333333,,323.29295833333333
250,2016-08-29,333.90825,,333.90825
250,2016-08-30,328.21575,,328.21575